Regional Weather Roundup
Issued by NWS

Home | Current Version | Previous Version | Text Only | Print | Product List | Glossary Off
Versions: 1 2 3 4 5 6 7 8 9 10 11 12 13 14 15 16 17 18 19 20 21 22 23 24 25 26 27 28 29 30 31 32 33 34 35 36 37 38 39 40 41 42 43 44 45 46 47 48 49 50

000
ASUS43 KMPX 170910
RWRMN
WEATHER ROUNDUP FOR MINNESOTA
NATIONAL WEATHER SERVICE TWIN CITIES/CHANHASSEN MN
300 AM CST WED DEC 17 2014


NOTE: "FAIR" INDICATES FEW OR NO CLOUDS BELOW 12,000 FEET WITH NO
SIGNIFICANT WEATHER AND/OR OBSTRUCTIONS TO VISIBILITY. N/A MEANS
CURRENT SKY AND/OR WEATHER CONDITIONS ARE NOT AVAILABLE.

MNZ060>063-068>070-171000-
   Twin Cities Metro

CITY           SKY/WX    TMP DP  RH WIND       PRES   REMARKS
TWIN CITIES    PTCLDY    11   7  84 NW9       30.28R WCI  -2
ST PAUL        PTCLDY    13   8  81 W10       30.30R WCI   0
CRYSTAL        CLEAR     12   6  77 NW7       30.27R WCI   1
BLAINE         CLEAR     12   9  85 W8        30.27R WCI   1
LAKEVILLE      CLEAR      9   7  92 NW7       30.28R WCI  -3
EDEN PRAIRIE   CLEAR     11   7  84 NW9       30.28R WCI  -2
SOUTH ST PAUL  CLOUDY    16  11  81 W6        30.28R WCI   7
LAKE ELMO      FAIR      14  10  85 NW7       30.27R WCI   4
$$
MNZ001>005-007-008-013>017-022>024-027-028-171000-
   Northwest Minnesota

CITY           SKY/WX    TMP DP  RH WIND       PRES   REMARKS
BEMIDJI        FLURRIES  11   8  89 NW8       30.27S WCI  -1
HALLOCK        PTCLDY     0  -4  85 NW3       30.38S
ROSEAU         PTCLDY     3   0  85 NW6       30.35R WCI  -8
WARROAD        MOCLDY     5   1  85 W5        30.33S WCI  -4
THIEF RVR FALL PTCLDY     3   1  92 NW7       30.33F WCI  -9
CROOKSTON      PTCLDY     3   0  85 N6        30.38S WCI  -8
FOSSTON        PTCLDY     3   0  85 NW5       30.32S WCI  -6
DETROIT LAKES  FLURRIES   5   3  92 NW6       30.31R WCI  -6
MOORHEAD       MIX PCPN   3   3 100 NW5       30.37R WCI  -6
PARK RAPIDS    CLOUDY    10   6  84 NW8       30.26R WCI  -2
MAHNOMEN       PTSUNNY    4   1  88 N5        30.31S WCI  -5
$$
MNZ006-009>011-018-025>026-171000-
   North Central Minnesota

CITY           SKY/WX    TMP DP  RH WIND       PRES   REMARKS
BAUDETTE       CLOUDY    11   7  84 NW8       30.30R WCI  -1
FLAG ISLAND    CLOUDY    10   7  85 N7        30.32S WCI   0
INTL FALLS     CLOUDY    12   7  80 N9        30.26R WCI   0
WASKISH        CLOUDY    10   9  92 CALM      30.29R
BIG FORK       LGT SNOW  12   9  85 NW3       30.25R
LONGVILLE      FLURRIES  12   9  85 N3        30.26R
GRAND RAPIDS   CLOUDY    10   7  85 NW12      30.22R WCI  -4
CRANE LAKE     LGT SNOW  10   9  92 N5        30.25S WCI   2
ORR            LGT SNOW  10   7  85 CALM      30.20S
COOK           LGT SNOW  10   9  92 NW3       30.22R
WALKER         FLURRIES  10   7  86 NW6       30.26S WCI   1
$$
MNZ012-019>021-037-171000-
   Northeast Minnesota

CITY           SKY/WX    TMP DP  RH WIND       PRES   REMARKS
DULUTH         LGT SNOW  13   7  77 NW7       30.17R WCI   3
ELY            LGT SNOW  10   7  85 NW6       30.18R WCI   1
HIBBING        LGT SNOW  13   6  74 NW12      30.21R WCI  -1
EVELETH        LGT SNOW  12   9  85 NW5       30.21R WCI   4
DULUTH HARBOR  CLOUDY    18  10  73 W8        30.25S WCI   7
SILVER BAY     LGT SNOW  16   9  73 NW5       30.16S WCI   9
GRAND MARAIS     N/A     16   8  71 N14G24    30.16S WCI   2
G MARAIS ARPRT LGT SNOW   9   3  78 NW6       30.09R WCI  -1
$$
MNZ029>031-032-039>041-046>048-054>057-064-171000-
   West Central Minnesota

CITY           SKY/WX    TMP DP  RH WIND       PRES   REMARKS
FERGUS FALLS   CLEAR      3   0  85 N6        30.37R WCI  -8
WHEATON        CLEAR      3   1  92 W6        30.37S WCI  -8
MORRIS         CLEAR      7   1  78 NW9       30.32S WCI  -7
ALEXANDRIA     PTCLDY     7   4  87 NW7       30.28S WCI  -5
ELBOW LAKE     FAIR       3   1  88 NW5       30.31S WCI  -6
WADENA         FLURRIES   9   7  92 NW5       30.28R WCI   0
GLENWOOD       CLEAR      7   3  85 NW5       30.29S WCI  -2
APPLETON       CLEAR      9   5  85 N5        30.34S WCI   0
BENSON         PTCLDY     7   3  85 NW7       30.33R WCI  -5
ORTONVILLE     CLEAR      7   3  85 N8        30.34R WCI  -6
MADISON        PTCLDY    12   9  85 NW3       30.35R
WILLMAR        FLURRIES   9   5  85 W7        30.32R WCI  -3
$$
MNZ033>034-036-042>043-049>051-058-059-171000-
   Central Minnesota

CITY           SKY/WX    TMP DP  RH WIND       PRES   REMARKS
ST CLOUD       CLEAR     11   5  77 NW8       30.28R WCI  -1
SAUK CENTRE    FAIR       6   3  88 NW6       30.30R WCI  -5
PAYNESVILLE    CLEAR      5   3  92 W7        30.30S WCI  -7
AITKIN         LGT SNOW  16   9  73 CALM      30.23S
PINE RIVER     FLURRIES  10   9  92 NW3       30.28S
BRAINERD       CLOUDY    11   7  84 NW6       30.26F WCI   1
STAPLES        CLOUDY     9   7  92 NW6       30.28R WCI  -1
LONG PRAIRIE   CLOUDY     7   3  85 NW6       30.28S WCI  -3
LITTLE FALLS   MOCLDY     9   3  78 W5        30.29S WCI   0
LITCHFIELD     CLEAR      9   7  92 NW6       30.29S WCI  -1
BUFFALO        CLEAR     10   6  85 NW6       30.30R WCI   0
MAPLE LAKE     CLEAR     10   7  89 NW7       30.29S WCI  -1
$$
MNZ037-044-045-052-053-171000-
   East Central Minnesota

CITY           SKY/WX    TMP DP  RH WIND       PRES   REMARKS
PRINCETON      CLOUDY    12   9  85 W5        30.26S WCI   4
MORA           CLOUDY    14   9  79 N5        30.27R WCI   6
CAMBRIDGE      FLURRIES  12   7  79 W6        30.25S WCI   3
RUSH CITY      CLOUDY    16  10  79 NW6       30.25F WCI   7
MOOSE LAKE     CLOUDY    14   9  79 NW6       30.22S WCI   5
HINCKLEY       FLURRIES  18  12  79 CALM      30.25R
CLOQUET        FLURRIES  12   9  85 W7        30.20S WCI   2
MCGREGOR       MOCLDY    12  10  92 W3        30.24S
$$
MNZ071>073-080-081-089-090-097-098-171000-
   Southwest Minnesota

CITY           SKY/WX    TMP DP  RH WIND       PRES   REMARKS
MONTEVIDEO     FLURRIES   9   7  92 N6        30.34S WCI  -1
GRANITE FALLS  FLURRIES   8   5  90 W8        30.35R WCI  -5
CANBY          CLEAR      7   5  91 W6        30.36R WCI  -3
MARSHALL       CLOUDY    10   3  72 NW8       30.33S WCI  -1
REDWOOD FALLS  CLEAR      8   5  87 NW8       30.33R WCI  -4
OLIVIA         CLEAR     10   7  85 NW8       30.31S WCI  -1
PIPESTONE      PTCLDY     7   3  85 CALM      30.30R
WINDOM         FLURRIES  10   9  92 NW10G16   30.30S WCI  -3
WORTHINGTON    PTCLDY     9   3  78 NW8       30.30S WCI  -4
JACKSON        PTCLDY    12   9  85 NW10      30.30R WCI  -1
TRACY          FLURRIES  11   8  89 NW5       30.33R WCI   3
SLAYTON        MOCLDY    10   9  92 CALM      30.31R
$$
MNZ065>067-074>077-082>085-091>093-171000-
   South Central Minnesota

CITY           SKY/WX    TMP DP  RH WIND       PRES   REMARKS
MANKATO        CLEAR     10   3  72 W7        30.29S WCI   0
NEW ULM        CLEAR      9   7  92 W6        30.32R WCI  -1
ST JAMES       CLEAR     10   9  92 W8        30.32S WCI  -1
FAIRMONT       CLOUDY    12   7  79 NW16      30.30R WCI  -4
GLENCOE        CLEAR     11   8  87 NW9       30.29S WCI  -2
FARIBAULT      MOCLDY    10   9  92 W5        30.27S WCI   2
OWATONNA       CLOUDY    12   9  85 NW9       30.26S WCI   0
WASECA         FLURRIES  12   9  85 W8        30.29S WCI   1
ALBERT LEA     CLEAR     10   9  92 NW5       30.27R WCI   2
$$
MNZ078>079-086>088-094>096-171000-
   Southeast Minnesota

CITY           SKY/WX    TMP DP  RH WIND       PRES   REMARKS
ROCHESTER      CLOUDY    16  13  88 NW12      30.23R WCI   3
RED WING       CLOUDY    19  12  73 NW7       30.25S WCI  10
STANTON        FLURRIES  17  12  82 W8        30.26S WCI   6
DODGE CENTER   LGT SNOW  14  12  92 CALM      30.23S
WINONA         CLOUDY    23  18  80 NW7       30.25F WCI  15
AUSTIN         FLURRIES  12  10  92 NW9       30.26R WCI   0
PRESTON        CLOUDY    17  14  88 NW9       30.23S WCI   5
$$
ABBREVIATIONS USED IN REMARKS
   TC - TEMPERATURES IN CELSIUS
  WCI - WIND CHILL INDEX
   HX - HEAT INDEX
  VSB - VISIBILITY
$$


USA.gov is the U.S. government's official web portal to all federal, state and local government web resources and services.